ATLAS 5 CENTAUR DEB, 46668

Orbit data source: Space-Track

ATLAS 5 CENTAUR DEB, 46668 is space debris in HEO originally from a launch on Wed, 17 Oct 2018 UTC launched from the Air Force Eastern Test Range (AFETR). Debris objects in space refer to the collection of defunct objects orbiting the Earth. Examples of debris include non-operational satellites, rocket bodies, and fragments generated from explosions, collisions, or faulty payload assembly.

Loading next visibility...
ATLAS 5 CENTAUR DEB details
Identifier
46668, 2018-079CW
Orbit
HEO
Last TLE update1 day ago
Origin
Flag of USULA (US)
ManufacturerULA Decatur
MissionSpacecraft
Bus & MotorUnknown
MassUnknown
Launch date (UTC)
2018-10-17 (6 years ago)
Launch vehicleUnknown
Launch site
Air Force Eastern Test Range (AFETR)
Object type
Payload
Rocket body
Debris
Shape & HBRUnknown
Radar Cross SectionRCS unknown

Expand to show TLE details & history

TLE from 1 day ago
0 ATLAS 5 CENTAUR DEB
1 46668U 18079CW  24336.40176344 -.00000085  00000-0  00000-0 0  9996
2 46668  12.5570  82.3409 4683043 224.8808  85.9707  1.83691241 27839
Epoch: 2024-12-01T09:38Z
Definitive object data (Epoch: 2024-12-01T09:38:32.361Z)
Latitude0.00001°
Longitude-133.14793°
Altitude26,536.683 km
Speed3.173 km/s
True Right ascension05h 28m 54s
True Declination0° 00' 00"
Sunlit
Object was in daylight at TLE epoch
Visualization TLE readout
Latitude-2.51434°
Longitude-144.59639°
Altitude23,233.916 km
Speed3.573 km/s
Apparent Right ascension04h 06m 44s
Apparent Declination-10° 56' 57"
Sunlit
Object is in daylight
Visualization observer readout
Local Sidereal Time08:57:11
Azimuth250.382° W
Elevation5.922°
Doppler factor1
Orbital elements
Apogee altitude34,976.578 km
Perigee altitude8,597.045 km
Semi-major axis28,164.948 km
Eccentricity0.4683043
Inclination12.557°
RAAN82.3409°
Arg. of periapsis224.8808°
True anomaly135.07535°
Mean anomaly85.9707°
Eccentric anomaly111.01747°
Mean motion0.45918 °/min
BSTARUnknown
Orbital period784.01 mins
Loading maneuver chart data...

ATLAS 5 CENTAUR DEB Visibility forecast

Observer location: undefined°, undefined

Span
Click to sort rows by Start time (UTC) header in descending order
Start Az.
Max El. time (UTC)
Max El. Az.
Max El.
End time (UTC)
End Az.
330 mins2024-12-02 11:40:30.494Z250.343° W2024-12-02 13:36:30.494Z256.069° W15.031°2024-12-02 17:10:30.494Z269.039° W
166 mins2024-12-02 19:05:30.494Z267.728° W2024-12-02 21:11:30.494Z209.258° SW22.749°2024-12-02 21:51:30.494Z150.691° SSE
|